Location: Birkigt
(50.7480°N, 11.9667°E)
Time: 00:07:53
(UTC+00:00)

Daily predictions for brighter satellites

Satellite Brightness Start Highest point End
(mag) Time Altitude Azimuth Time Altitude Azimuth Time Altitude Azimuth
CZ-4C R/B 4.3 02:08:49 32° ENE 02:08:49 32° ENE 02:13:33 10° E
Cosmos 2297 Rocket 4.1 02:42:30 25° ENE 02:42:30 25° ENE 02:45:08 10° NE
Cosmos 2227 Rocket 4.0 02:46:00 27° ENE 02:46:00 27° ENE 02:49:00 10° NE
SL-16 R/B 3.5 03:17:58 34° SE 03:17:58 34° SE 03:21:06 10° SE
Meteor 1-27 Rocket 4.4 03:20:59 50° NE 03:21:43 54° ENE 03:27:30 10° SSE
Cosmos 407 Rocket 4.4 03:25:56 47° E 03:25:56 47° E 03:30:17 10° SE
Cosmos 2082 4.4 03:28:10 49° SE 03:28:35 50° ESE 03:34:00 10° NE
Cosmos 1140 Rocket 4.4 03:31:43 43° NE 03:31:55 43° ENE 03:36:53 10° SE
USA 234 3.3 03:26:45 10° ENE 03:33:17 70° SE 03:33:58 65° S
ATLAS 5 CENTAUR R/B 3.0 03:37:50 37° ENE 03:37:50 37° ENE 03:41:00 10° NE
NOSS 2-1 (E) 4.5 03:52:11 56° N 03:52:58 62° NE 03:59:56 10° ESE
CZ-4C R/B 2.8 03:54:02 62° WNW 03:55:27 80° SW 04:03:35 10° SE
Cosmos 1891 Rocket 4.4 03:56:28 10° S 04:02:55 89° W 04:09:17 10° N
Cosmos 1484 Rocket 3.8 04:00:49 10° NNE 04:04:41 47° E 04:08:28 10° S
SKYMED 2 3.8 04:02:14 10° SSE 04:06:30 69° ENE 04:06:30 69° ENE
Cosmos 1464 Rocket 3.8 04:01:52 10° S 04:08:04 83° W 04:14:16 10° N
Lacrosse 5 3.7 04:14:15 18° SSW 04:14:15 18° SSW 04:15:56 10° S
Cosmos 2263 Rocket 4.4 04:07:44 10° SSE 04:12:06 24° ESE 04:16:29 10° NE
Cosmos 2056 Rocket 4.2 04:08:30 10° S 04:13:26 52° ESE 04:18:25 10° NNE
Cosmos 1190 Rocket 3.8 04:14:29 74° WNW 04:14:47 77° WSW 04:20:01 10° SSE
STARLINK 1054 4.5 04:16:51 39° E 04:16:51 39° E 04:19:07 10° E
Cosmos 676 Rocket 4.2 04:13:55 39° N 04:15:51 72° ENE 04:21:07 10° SSE
STARLINK 1062 4.3 04:19:20 41° E 04:19:20 41° E 04:21:43 10° E
ATLAS CENTAUR R/B 3.7 04:18:23 15° N 04:18:38 15° N 04:21:06 10° NE
STARLINK 1053 4.1 04:22:13 45° E 04:22:13 45° E 04:24:44 10° ESE
STARLINK 1061 4.0 04:24:33 49° E 04:24:33 49° E 04:27:09 10° ESE
Cosmos 2297 Rocket 2.5 04:24:20 45° NW 04:24:20 45° NW 04:29:24 10° NNE
STARLINK 1067 3.8 04:27:12 53° E 04:27:12 53° E 04:29:55 10° ESE
Geosat 4.2 04:22:40 10° S 04:27:13 48° SW 04:27:13 48° SW
Cosmos 1954 Rocket 4.0 04:25:13 34° NNW 04:27:33 82° ENE 04:32:51 10° SSE
Cosmos 1072 Rocket 4.4 04:21:40 10° SSW 04:27:40 58° WNW 04:33:44 10° N
Cosmos 2227 Rocket 2.4 04:27:52 47° NW 04:27:52 47° NW 04:33:17 10° NNE
ALOS 3.0 04:24:31 10° NNE 04:29:08 54° E 04:33:42 10° S
STARLINK 1058 3.6 04:29:46 58° E 04:29:46 58° E 04:32:35 10° ESE
CZ-4B R/B 4.5 04:25:03 10° NNE 04:30:20 43° E 04:35:41 10° S
STARLINK 1043 3.5 04:32:24 63° E 04:32:24 63° E 04:35:20 10° ESE
Cosmos 1933 Rocket 3.4 04:27:54 10° S 04:32:14 87° E 04:36:37 10° N
Okean 1-7 3.4 04:29:34 18° N 04:32:48 65° ENE 04:37:10 10° SSE
STARLINK 1065 3.3 04:34:56 68° E 04:34:56 68° E 04:37:59 10° ESE
STARLINK 1063 3.2 04:37:42 75° E 04:37:42 75° E 04:40:52 10° ESE
FENGYUN 3A 4.1 04:32:52 10° NNE 04:38:15 63° ESE 04:43:36 10° S
Cosmos 2219 4.2 04:40:38 28° NNW 04:40:38 28° NNW 04:44:52 10° NNE
STARLINK 1064 3.1 04:40:13 81° E 04:40:13 81° E 04:43:29 10° ESE
Nadezhda 4 Rocket 4.0 04:34:00 10° NNW 04:40:07 58° W 04:46:09 10° S
STARLINK 1041 3.0 04:42:51 87° ESE 04:42:51 87° ESE 04:46:13 10° ESE
STARLINK 1038 2.9 04:45:30 86° WSW 04:45:34 88° SSW 04:48:59 10° ESE
FALCON 9 DEB 4.3 04:47:19 27° SE 04:47:19 27° SE 04:48:37 10° ESE
MOS 1-B 4.3 04:40:40 10° NNE 04:46:30 88° ESE 04:52:16 10° SSW
Cosmos 1943 3.2 04:43:52 23° NNW 04:47:29 85° ENE 04:53:06 10° SSE
STARLINK 1046 2.9 04:48:08 79° W 04:48:19 85° SSW 04:51:44 10° ESE
STARLINK 1039 2.9 04:50:48 73° W 04:51:04 83° SSW 04:54:30 10° ESE
Cosmos 1461 3.0 04:51:01 48° W 04:51:46 56° SW 04:56:01 10° SSE
STARLINK 1045 2.9 04:51:31 71° W 04:51:50 82° SSW 04:55:16 10° ESE
FALCON 9 DEB 3.8 04:53:10 31° SE 04:53:10 31° SE 04:54:41 10° SE
Okean O Rocket 2.0 04:49:07 10° NNE 04:53:30 66° ESE 04:57:52 10° S
NOSS 2-1 (C) 4.5 04:52:07 33° WNW 04:54:35 62° SW 05:01:48 10° SSE
COSMO-SKYMED 1 2.9 04:50:30 10° S 04:54:37 41° W 04:55:02 40° W
STARLINK 1034 2.7 04:58:17 68° SW 04:58:21 68° SSW 05:01:16 10° ESE
NOAA 6 4.3 04:53:34 10° NNE 04:58:42 71° ESE 05:03:49 10° S
Cosmos 2242 Rocket 4.1 04:58:14 37° WNW 04:58:47 38° W 05:02:58 10° SSW
SL-16 R/B 3.5 04:59:55 21° WSW 04:59:55 21° WSW 05:03:10 10° SSW
STARLINK 1027 2.7 04:59:00 67° SW 04:59:05 67° SSW 05:01:59 10° ESE
STARLINK 1028 2.7 04:59:14 66° SW 04:59:18 67° SSW 05:02:13 10° ESE
STARLINK 1021 2.7 04:59:27 66° SW 04:59:32 67° SSW 05:02:26 10° ESE
STARLINK 1019 2.7 04:59:37 65° SW 04:59:44 67° SSW 05:02:41 10° ESE
STARLINK 1012 2.7 04:59:51 65° SW 04:59:57 66° SSW 05:02:52 10° ESE
STARLINK 1010 2.7 05:00:04 65° SW 05:00:11 66° SSW 05:03:06 10° ESE
STARLINK 1052 2.7 05:00:05 65° SW 05:00:12 66° SSW 05:03:09 10° ESE
Cosmos 1452 Rocket 4.4 04:55:11 10° S 05:00:15 51° ESE 05:05:23 10° NNE
STARLINK 1026 2.7 05:00:19 65° SW 05:00:26 66° SSW 05:03:21 10° ESE
STARLINK 1013 2.7 05:00:32 64° SW 05:00:39 66° SSW 05:03:34 10° ESE
DMSP B5D1-3 4.4 04:55:39 10° SSE 05:00:49 80° WSW 05:06:01 10° NNW
STARLINK 1009 2.7 05:00:44 64° SW 05:00:52 65° SSW 05:03:46 10° ESE
STARLINK 1015 2.7 05:00:57 64° SW 05:01:05 65° SSW 05:04:01 10° ESE
STARLINK 1016 2.7 05:01:10 63° SW 05:01:19 65° SSW 05:04:14 10° ESE
STARLINK 1008 2.7 05:01:24 63° SW 05:01:33 65° SSW 05:04:28 10° ESE
Cosmos 1607 4.2 04:58:44 28° W 05:01:37 46° NW 05:07:35 10° NE
STARLINK 1014 2.7 05:01:36 62° SW 05:01:46 65° SSW 05:04:41 10° ESE
STARLINK 1017 2.7 05:01:40 62° SW 05:01:51 65° SSW 05:04:44 10° ESE
STARLINK 1025 2.7 05:01:49 62° SW 05:02:00 64° SSW 05:04:54 10° ESE
Helios 1A Rocket 3.0 04:58:20 10° NNE 05:02:24 75° ESE 05:06:25 10° S
STARLINK 1023 2.7 05:02:16 61° SW 05:02:27 64° SSW 05:05:22 10° ESE
STARLINK 1007 2.7 05:02:27 61° SW 05:02:39 64° SSW 05:05:34 10° ESE
Cosmos 2026 Rocket 3.9 04:56:36 10° NNW 05:02:45 81° W 05:08:58 10° S
STARLINK 1048 2.7 05:02:41 61° SW 05:02:54 63° SSW 05:05:47 10° ESE
STARLINK 1049 2.7 05:02:54 60° SW 05:03:06 63° SSW 05:06:01 10° ESE
STARLINK 1040 2.8 05:02:58 58° SW 05:03:12 61° SSW 05:06:06 10° SE
STARLINK 1051 2.7 05:03:06 60° SW 05:03:20 63° SSW 05:06:14 10° ESE
STARLINK 1037 2.7 05:03:20 59° SW 05:03:34 63° SSW 05:06:29 10° ESE
STARLINK 1059 2.7 05:03:32 59° SW 05:03:47 63° SSW 05:06:42 10° ESE
STARLINK 1057 2.7 05:03:45 59° SW 05:04:00 62° SSW 05:06:55 10° ESE
Cosmos 2084 Rocket 4.1 05:03:00 34° W 05:04:03 39° SW 05:08:10 10° SSE
Cosmos 1850 Rocket 4.2 04:59:16 13° NNW 05:04:07 74° ENE 05:09:27 10° SSE
Cosmos 1470 Rocket 4.1 05:00:12 10° SW 05:04:21 37° WNW 05:08:33 10° N
STARLINK 1068 2.7 05:04:12 58° WSW 05:04:28 62° SSW 05:07:22 10° ESE
STARLINK 1029 2.7 05:04:25 57° WSW 05:04:41 62° SSW 05:07:35 10° SE
STARLINK 1060 2.7 05:04:38 57° WSW 05:04:55 61° SSW 05:07:49 10° SE
Cosmos 724 4.3 04:59:04 10° SW 05:05:08 84° NW 05:11:06 10° NE
STARLINK 1030 2.8 05:04:48 56° WSW 05:05:08 62° SSW 05:08:04 10° SE
STARLINK 1020 2.7 05:05:03 56° WSW 05:05:21 61° SSW 05:08:15 10° SE
Cosmos 1603 3.8 05:02:03 23° NW 05:05:37 58° WSW 05:11:13 10° S
Meteor 2-4 Rocket 4.4 05:00:24 10° N 05:05:54 52° ENE 05:11:12 10° SSE
STARLINK 1033 2.8 05:05:42 55° WSW 05:06:01 60° SSW 05:08:55 10° SE
Okean 1 3.2 05:02:38 14° NNW 05:06:02 84° W 05:10:00 10° S
Cosmos 1371 Rocket 4.0 05:00:58 10° SW 05:06:06 55° WNW 05:11:14 10° NNE
STARLINK 1031 2.8 05:05:56 55° WSW 05:06:16 60° SSW 05:09:09 10° SE
STARLINK 1024 2.8 05:06:07 54° WSW 05:06:29 60° SSW 05:09:25 10° SE
STARLINK 1035 2.8 05:06:22 54° WSW 05:06:43 60° SSW 05:09:37 10° SE
Cosmos 407 Rocket 4.4 05:06:12 27° W 05:06:47 28° W 05:11:15 10° SSW
Cosmos 1703 Rocket 3.7 05:03:52 20° NNW 05:06:48 51° W 05:11:05 10° S
STARLINK 1032 2.8 05:06:35 53° WSW 05:06:56 60° SSW 05:09:49 10° SE
STARLINK 1011 2.8 05:06:45 52° WSW 05:07:08 60° SSW 05:10:04 10° SE
STARLINK 1036 2.8 05:07:01 53° WSW 05:07:23 59° SSW 05:10:17 10° SE
STARLINK 1047 2.8 05:07:27 52° WSW 05:07:50 59° SSW 05:10:43 10° SE
USA 116 4.3 05:05:15 10° S 05:09:25 48° W 05:13:27 14° NNW
CZ-2C R/B 3.9 05:06:12 10° N 05:07:45 17° NNW 05:07:45 17° NNW
METEOR-M 4.0 05:04:35 10° NNE 05:09:57 74° WNW 05:15:16 10° SSW
Cosmos 2082 4.2 05:10:06 23° W 05:12:53 36° NW 05:18:05 10° NNE
Cosmos 1140 Rocket 4.2 05:11:47 26° WNW 05:13:37 33° WSW 05:18:14 10° SSW
Cosmos 2279 Rocket 4.4 05:09:28 10° S 05:15:35 68° E 05:21:47 10° NNE
Starlink Launch 2 leader 3.2 05:16:05 33° SW 05:16:11 33° SSW 05:18:27 10° SE
USA 234 3.3 05:09:52 10° ENE 05:16:18 62° NNW 05:21:19 18° W
Cosmos 1655 Rocket 4.3 05:11:03 10° N 05:17:16 69° ENE 05:23:28 10° SSE
SL-24 R/B 4.0 05:14:13 10° S 05:18:44 72° WSW 05:22:59 10° NNW
Cosmos 1634 Rocket 3.9 05:13:34 10° SSW 05:19:47 76° W 05:26:00 10° N
Starlink Launch 2 trailer 3.3 05:19:37 30° SW 05:19:51 31° SSW 05:22:05 10° SE
Cosmos 2034 Rocket 4.4 05:14:02 10° SW 05:19:53 38° WNW 05:25:49 10° N
ATLAS 5 CENTAUR R/B 2.6 05:19:23 24° WNW 05:21:12 32° NNW 05:25:50 10° NE
Cosmos 1869 Rocket 3.4 05:22:54 10° SSW 05:27:13 69° WNW 05:31:34 10° N
Meteor 1-18 Rocket 4.3 05:22:51 10° NNW 05:28:17 56° W 05:33:41 10° S
Meteor 1-20 Rocket 4.3 05:23:03 10° SSW 05:28:50 63° WNW 05:34:39 10° N
ADEOS Rocket 3.3 05:24:14 10° SSE 05:31:19 83° ENE 05:37:43 10° NNW
BREEZE-M DEB (TANK) 3.2 05:26:18 10° WSW 05:34:07 67° S 05:36:55 10° E
CZ-4B DEB 4.5 05:31:05 10° N 05:36:19 45° WNW 05:41:34 10° SW
STARLINK 1044 3.7 05:35:58 21° W 05:37:21 34° SSW 05:40:00 10° SE
Cosmos 1602 3.7 05:34:34 10° SSW 05:38:20 57° WNW 05:42:08 10° N
Cosmos 1515 3.6 05:34:41 10° NNW 05:38:31 82° W 05:42:19 10° S
Cosmos 1484 Rocket 4.1 05:35:51 10° NNW 05:38:48 20° WNW 05:41:43 10° WSW
STARLINK 1050 3.8 05:37:01 20° W 05:39:01 43° SSW 05:42:14 10° SE
SJ-7 4.4 05:36:37 10° N 05:40:37 59° WNW 05:44:33 10° SSW
Okean 3 3.3 05:37:04 10° NNW 05:41:16 77° W 05:45:26 10° S
STARLINK 1055 3.8 05:39:36 19° W 05:41:42 41° SSW 05:44:54 10° SE
Cosmos 1500 4.3 05:38:35 10° SSE 05:42:17 47° E 05:45:59 10° NNE
CZ-4C R/B 4.1 05:39:15 15° WNW 05:43:26 24° WSW 05:49:33 10° SSW
STARLINK 1022 3.9 05:41:19 18° W 05:43:28 40° SSW 05:46:40 10° SE
Cosmos 1340 2.5 05:41:00 10° SSW 05:44:44 69° WNW 05:48:31 10° N
Cosmos 1674 Rocket 4.0 05:41:51 10° N 05:46:13 65° ENE 05:50:30 10° SSE
STARLINK 1042 4.0 05:44:37 16° W 05:46:53 38° SSW 05:50:04 10° SE
SOZ 3.9 05:48:01 18° W 05:49:33 54° SSW 05:51:38 10° ESE
STARLINK 1056 4.0 05:47:16 15° W 05:49:39 36° SSW 05:52:48 10° SE
SAR-Lupe-2 3.7 05:47:32 10° SSE 05:51:06 75° ENE 05:54:43 10° NNW
STARLINK 1054 4.1 05:49:56 14° W 05:52:24 35° SSW 05:55:32 10° SE
Cosmos 371 Rocket 4.4 05:49:57 10° S 05:54:37 49° ESE 05:59:19 10° NNE
STARLINK 1062 4.2 05:52:24 14° W 05:54:58 34° SW 05:58:04 10° SSE
FALCON 9 DEB 4.4 05:53:58 11° WSW 05:55:11 15° SW 05:56:41 10° S
CZ-2C R/B 3.8 05:50:44 10° SSE 05:55:27 79° WSW 06:00:15 10° NNW
Cosmos 2263 Rocket 2.1 05:50:01 10° SW 05:55:34 67° WNW 06:01:09 10° NNE
Cosmos 2056 Rocket 4.3 05:51:26 10° WSW 05:55:51 29° NW 06:00:19 10° N
STARLINK 1053 4.2 05:55:18 13° W 05:57:58 32° SW 06:01:03 10° SSE
ATLAS CENTAUR R/B 2.8 05:55:01 10° NNW 05:58:56 30° NNE 06:02:35 10° E
SMAP 3.0 05:54:41 10° NNE 05:59:22 78° WNW 06:04:02 10° SSW
STARLINK 1061 4.3 05:57:38 12° W 06:00:22 31° SW 06:03:26 10° SSE
Cosmos 2227 4.4 05:56:15 10° SW 06:01:50 49° NW 06:07:27 10° NNE
Radarsat Rocket 4.1 05:56:37 10° NNE 06:02:34 66° WNW 06:09:05 10° SSW
STARLINK 1067 4.3 06:00:18 11° W 06:03:08 30° SW 06:06:10 10° SSE
IRS-1C Rocket 4.1 05:59:42 10° NNE 06:04:59 76° WNW 06:10:14 10° SSW
STARLINK 1058 4.4 06:02:53 10° W 06:05:48 29° SW 06:08:48 10° SSE
ALOS 3.3 06:02:33 10° N 06:06:14 23° WNW 06:09:54 10° WSW
Cosmos 1378 Rocket 3.7 06:03:17 10° N 06:07:42 78° ENE 06:12:08 10° SSE
STARLINK 1043 4.5 06:05:34 10° W 06:08:31 28° SW 06:11:29 10° SSE
Cosmos 2297 Rocket 3.8 06:06:18 10° WNW 06:09:30 15° NNW 06:12:44 10° N
IRIDIUM 103 4.4 06:04:55 10° N 06:10:11 90° WNW 06:15:25 10° S
CZ-4B R/B 3.7 06:05:47 10° N 06:10:50 37° WNW 06:15:57 10° SW
Cosmos 1833 Rocket 4.3 06:06:04 10° NNW 06:10:50 27° NE 06:15:35 10° E
Cosmos 44 4.3 06:07:30 10° SSW 06:12:05 50° ESE 06:16:28 10° NE
Timation 1 Rocket 4.3 06:07:03 10° SW 06:12:58 65° NW 06:18:57 10° NNE
Cosmos 2227 Rocket 3.8 06:10:08 10° WNW 06:13:22 15° NNW 06:16:37 10° N
Cosmos 1346 Rocket 3.2 06:10:02 10° SW 06:13:39 37° WNW 06:17:18 10° N
CZ-4 R/B 2.3 06:15:29 10° NNE 06:19:16 51° E 06:23:03 10° S
